| time (UTC) | temp C | wind direction | speed KPH | gust KPH | rain 1hr cm | rain 24hr cm | rain mn cm | humidity % | barometer mb |
| 20260509072548 | 10 | 209 | 4.8 | 11.3 | 0.00 | 0.00 | 0.00 | 89 | 1001.8 |
| 20260509072038 | 10 | 225 | 4.8 | 9.7 | 0.00 | 0.00 | 0.00 | 89 | 1001.8 |
| 20260509071535 | 10 | 209 | 4.8 | 9.7 | 0.00 | 0.00 | 0.00 | 89 | 1001.8 |
| 20260509071029 | 10 | 223 | 4.8 | 9.7 | 0.00 | 0.00 | 0.00 | 89 | 1001.8 |
| 20260509070526 | 10 | 219 | 4.8 | 8.0 | 0.00 | 0.00 | 0.00 | 88 | 1001.8 |
| 20260509070026 | 10 | 223 | 4.8 | 9.7 | 0.00 | 0.00 | 0.00 | 88 | 1001.9 |
| 20260509065528 | 10 | 194 | 6.4 | 12.9 | 0.00 | 0.00 | 0.00 | 88 | 1001.9 |
| 20260509065027 | 10 | 225 | 6.4 | 12.9 | 0.00 | 0.00 | 0.00 | 88 | 1001.9 |
| 20260509064527 | 10 | 225 | 4.8 | 9.7 | 0.00 | 0.00 | 0.00 | 88 | 1002.1 |
| 20260509064028 | 10 | 220 | 4.8 | 8.0 | 0.00 | 0.00 | 0.00 | 88 | 1002.1 |
| 20260509063527 | 10 | 215 | 4.8 | 9.7 | 0.00 | 0.00 | 0.00 | 88 | 1002.1 |
| 20260509063251 | 10 | 225 | 4.8 | 9.7 | 0.00 | 0.00 | 0.00 | 87 | 1002.3 |
| 20260509062527 | 10 | 238 | 3.2 | 9.7 | 0.00 | 0.00 | 0.00 | 87 | 1002.3 |
| 20260509062027 | 10 | 226 | 3.2 | 8.0 | 0.00 | 0.00 | 0.00 | 87 | 1002.3 |
| 20260509061529 | 10 | 221 | 4.8 | 8.0 | 0.00 | 0.00 | 0.00 | 87 | 1002.4 |
| 20260509061031 | 10 | 221 | 4.8 | 12.9 | 0.00 | 0.00 | 0.00 | 87 | 1002.4 |
| 20260509060524 | 10 | 205 | 4.8 | 12.9 | 0.00 | 0.00 | 0.00 | 87 | 1002.4 |
| 20260509060012 | 10 | 224 | 6.4 | 11.3 | 0.00 | 0.00 | 0.00 | 87 | 1002.5 |
| 20260509055458 | 10 | 228 | 6.4 | 11.3 | 0.00 | 0.00 | 0.00 | 86 | 1002.5 |
| 20260509055217 | 11 | 217 | 4.8 | 11.3 | 0.00 | 0.00 | 0.00 | 86 | 1002.5 |
| 20260509054443 | 11 | 225 | 6.4 | 11.3 | 0.00 | 0.00 | 0.00 | 86 | 1002.5 |
| 20260509053943 | 11 | 232 | 4.8 | 9.7 | 0.00 | 0.00 | 0.00 | 86 | 1002.5 |
| 20260509053440 | 11 | 220 | 6.4 | 11.3 | 0.00 | 0.00 | 0.00 | 86 | 1002.6 |
| 20260509052940 | 11 | 223 | 6.4 | 12.9 | 0.00 | 0.00 | 0.00 | 86 | 1002.6 |
| 20260509052441 | 11 | 230 | 6.4 | 12.9 | 0.00 | 0.00 | 0.00 | 85 | 1002.6 |
| 20260509051940 | 11 | 229 | 6.4 | 11.3 | 0.00 | 0.00 | 0.00 | 85 | 1002.4 |
| 20260509051442 | 11 | 219 | 6.4 | 12.9 | 0.00 | 0.00 | 0.00 | 86 | 1002.4 |
| 20260509051438 | 11 | 227 | 6.4 | 14.5 | 0.00 | 0.00 | 0.00 | 86 | 1002.4 |
| 20260509050439 | 11 | 192 | 6.4 | 14.5 | 0.00 | 0.00 | 0.00 | 86 | 1002.8 |
| 20260509045939 | 11 | 211 | 8.0 | 14.5 | 0.00 | 0.00 | 0.00 | 85 | 1002.8 |
| 20260509045438 | 11 | 221 | 8.0 | 14.5 | 0.00 | 0.00 | 0.00 | 85 | 1002.8 |
| 20260509044938 | 11 | 215 | 8.0 | 12.9 | 0.00 | 0.00 | 0.00 | 85 | 1002.9 |
| 20260509044433 | 12 | 223 | 6.4 | 12.9 | 0.00 | 0.00 | 0.00 | 85 | 1002.9 |
| 20260509043920 | 12 | 231 | 4.8 | 11.3 | 0.00 | 0.00 | 0.00 | 85 | 1002.9 |
| 20260509043408 | 12 | 220 | 6.4 | 11.3 | 0.00 | 0.00 | 0.00 | 84 | 1002.9 |
| 20260509042856 | 12 | 206 | 6.4 | 12.9 | 0.00 | 0.00 | 0.00 | 84 | 1002.9 |
| 20260509042354 | 12 | 192 | 6.4 | 12.9 | 0.00 | 0.00 | 0.00 | 84 | 1002.9 |
| 20260509041849 | 12 | 220 | 6.4 | 12.9 | 0.00 | 0.00 | 0.00 | 84 | 1002.9 |
| 20260509041602 | 12 | 214 | 6.4 | 12.9 | 0.00 | 0.00 | 0.00 | 84 | 1002.9 |
| 20260509040837 | 12 | 215 | 6.4 | 14.5 | 0.00 | 0.00 | 0.00 | 84 | 1002.9 |
| 20260509040328 | 12 | 227 | 8.0 | 16.1 | 0.00 | 0.00 | 0.00 | 83 | 1003.1 |
| 20260509035824 | 12 | 189 | 8.0 | 14.5 | 0.00 | 0.00 | 0.00 | 83 | 1003.1 |
| 20260509035319 | 12 | 223 | 6.4 | 14.5 | 0.00 | 0.00 | 0.00 | 83 | 1003.1 |
| 20260509034813 | 12 | 236 | 6.4 | 14.5 | 0.00 | 0.00 | 0.00 | 82 | 1003.3 |
| 20260509034534 | 12 | 220 | 6.4 | 12.9 | 0.00 | 0.00 | 0.00 | 82 | 1003.3 |
| 20260509033800 | 12 | 224 | 4.8 | 11.3 | 0.00 | 0.00 | 0.00 | 82 | 1003.3 |
| 20260509033254 | 13 | 221 | 6.4 | 11.3 | 0.00 | 0.00 | 0.00 | 81 | 1003.1 |
| 20260509032744 | 13 | 215 | 6.4 | 11.3 | 0.00 | 0.00 | 0.00 | 81 | 1003.1 |
| 20260509032242 | 13 | 207 | 6.4 | 11.3 | 0.00 | 0.00 | 0.00 | 80 | 1003.1 |
| 20260509032004 | 13 | 218 | 4.8 | 11.3 | 0.00 | 0.00 | 0.00 | 80 | 1003.1 |
| 20260509031450 | 13 | 201 | 6.4 | 12.9 | 0.00 | 0.00 | 0.00 | 79 | 1003.1 |
| 20260509030724 | 13 | 151 | 6.4 | 12.9 | 0.00 | 0.00 | 0.00 | 78 | 1003.1 |
| 20260509030214 | 13 | 217 | 6.4 | 12.9 | 0.00 | 0.00 | 0.00 | 77 | 1003.3 |
| 20260509025712 | 13 | 205 | 4.8 | 11.3 | 0.00 | 0.00 | 0.00 | 76 | 1003.3 |
| 20260509025206 | 13 | 172 | 6.4 | 11.3 | 0.00 | 0.00 | 0.00 | 76 | 1003.3 |
| 20260509024700 | 13 | 181 | 6.4 | 11.3 | 0.00 | 0.00 | 0.00 | 76 | 1003.3 |
| 20260509024154 | 13 | 196 | 4.8 | 11.3 | 0.00 | 0.00 | 0.00 | 76 | 1003.3 |
| 20260509023648 | 13 | 219 | 4.8 | 9.7 | 0.00 | 0.00 | 0.00 | 76 | 1003.3 |
| 20260509023403 | 13 | 203 | 4.8 | 9.7 | 0.00 | 0.00 | 0.00 | 76 | 1003.3 |
| 20260509022632 | 13 | 199 | 4.8 | 9.7 | 0.00 | 0.00 | 0.00 | 75 | 1003.3 |
| 20260509022131 | 13 | 180 | 4.8 | 9.7 | 0.00 | 0.00 | 0.00 | 75 | 1003.3 |
| 20260509021844 | 14 | 254 | 4.8 | 9.7 | 0.00 | 0.00 | 0.00 | 75 | 1003.1 |
| 20260509021122 | 14 | 208 | 4.8 | 6.4 | 0.00 | 0.00 | 0.00 | 75 | 1003.1 |
| 20260509020622 | 14 | 188 | 4.8 | 9.7 | 0.00 | 0.00 | 0.00 | 75 | 1003.1 |
| 20260509020122 | 14 | 227 | 4.8 | 9.7 | 0.00 | 0.00 | 0.00 | 75 | 1002.9 |
| 20260509015622 | 14 | 232 | 4.8 | 14.5 | 0.00 | 0.00 | 0.00 | 74 | 1002.9 |
| 20260509015355 | 14 | 226 | 6.4 | 14.5 | 0.00 | 0.00 | 0.00 | 74 | 1002.9 |
| 20260509014621 | 15 | 180 | 6.4 | 12.9 | 0.00 | 0.00 | 0.00 | 74 | 1002.8 |
| 20260509014122 | 15 | 205 | 6.4 | 14.5 | 0.00 | 0.00 | 0.00 | 74 | 1002.8 |
| 20260509013851 | 15 | 236 | 8.0 | 14.5 | 0.00 | 0.00 | 0.00 | 74 | 1002.8 |
| 20260509013345 | 15 | 212 | 8.0 | 14.5 | 0.00 | 0.00 | 0.00 | 73 | 1002.7 |
| 20260509012849 | 15 | 184 | 6.4 | 17.7 | 0.00 | 0.00 | 0.00 | 73 | 1002.7 |
| 20260509012122 | 15 | 240 | 6.4 | 17.7 | 0.00 | 0.00 | 0.00 | 73 | 1002.7 |
| 20260509011622 | 15 | 209 | 6.4 | 12.9 | 0.00 | 0.00 | 0.00 | 72 | 1002.9 |
| 20260509011122 | 15 | 212 | 6.4 | 12.9 | 0.00 | 0.00 | 0.00 | 72 | 1002.9 |
| 20260509010621 | 15 | 225 | 6.4 | 11.3 | 0.00 | 0.00 | 0.00 | 71 | 1002.9 |
| 20260509010122 | 16 | 210 | 6.4 | 12.9 | 0.00 | 0.00 | 0.00 | 70 | 1002.8 |
| 20260509005615 | 16 | 190 | 4.8 | 12.9 | 0.00 | 0.00 | 0.00 | 69 | 1002.8 |
| 20260509005104 | 16 | 169 | 4.8 | 8.0 | 0.00 | 0.00 | 0.00 | 68 | 1002.8 |
| 20260509004552 | 16 | 170 | 3.2 | 8.0 | 0.00 | 0.00 | 0.00 | 67 | 1002.7 |
| 20260509004041 | 16 | 207 | 3.2 | 6.4 | 0.00 | 0.00 | 0.00 | 66 | 1002.7 |
| 20260509003529 | 16 | 199 | 3.2 | 6.4 | 0.00 | 0.00 | 0.00 | 65 | 1002.7 |
| 20260509003015 | 16 | 179 | 4.8 | 11.3 | 0.00 | 0.00 | 0.00 | 63 | 1002.7 |
| 20260509002725 | 17 | 239 | 4.8 | 11.3 | 0.00 | 0.00 | 0.00 | 63 | 1002.7 |
| 20260509002214 | 17 | 234 | 4.8 | 11.3 | 0.00 | 0.00 | 0.00 | 63 | 1002.8 |
| 20260509001441 | 17 | 224 | 6.4 | 11.3 | 0.00 | 0.00 | 0.00 | 63 | 1002.8 |
| 20260509000940 | 17 | 225 | 6.4 | 14.5 | 0.00 | 0.00 | 0.00 | 63 | 1002.8 |
| 20260509000435 | 17 | 232 | 6.4 | 16.1 | 0.00 | 0.00 | 0.00 | 63 | 1002.8 |
| 20260508235927 | 17 | 220 | 6.4 | 16.1 | 0.00 | 0.00 | 0.00 | 63 | 1002.8 |
| 20260508235421 | 17 | 244 | 8.0 | 16.1 | 0.00 | 0.00 | 0.00 | 63 | 1002.8 |
| 20260508234915 | 17 | 238 | 6.4 | 16.1 | 0.00 | 0.00 | 0.00 | 64 | 1002.8 |
| 20260508234410 | 17 | 250 | 6.4 | 12.9 | 0.00 | 0.00 | 0.00 | 65 | 1002.8 |
| 20260508233859 | 17 | 245 | 8.0 | 14.5 | 0.00 | 0.00 | 0.00 | 65 | 1002.8 |
| 20260508233357 | 17 | 219 | 8.0 | 14.5 | 0.00 | 0.00 | 0.00 | 65 | 1002.9 |
| 20260508232852 | 17 | 241 | 6.4 | 12.9 | 0.00 | 0.00 | 0.00 | 64 | 1002.9 |
| 20260508232346 | 17 | 230 | 6.4 | 14.5 | 0.00 | 0.00 | 0.00 | 65 | 1002.9 |
| 20260508231840 | 17 | 248 | 8.0 | 14.5 | 0.00 | 0.00 | 0.00 | 65 | 1002.9 |
| 20260508231334 | 17 | 225 | 8.0 | 16.1 | 0.00 | 0.00 | 0.00 | 65 | 1002.9 |
| 20260508230829 | 17 | 223 | 9.7 | 20.9 | 0.00 | 0.00 | 0.00 | 63 | 1002.9 |
| 20260508230323 | 18 | 0 | 11.3 | 20.9 | 0.00 | 0.00 | 0.00 | 63 | 1002.9 |
| 20260508225816 | 18 | 219 | 9.7 | 22.5 | 0.00 | 0.00 | 0.00 | 64 | 1002.9 |
| 20260508225309 | 18 | 216 | 8.0 | 20.9 | 0.00 | 0.00 | 0.00 | 63 | 1002.9 |
| 20260508224803 | 18 | 217 | 9.7 | 17.7 | 0.00 | 0.00 | 0.00 | 62 | 1002.9 |
| 20260508224258 | 18 | 227 | 8.0 | 17.7 | 0.00 | 0.00 | 0.00 | 63 | 1002.9 |
| 20260508224012 | 18 | 242 | 8.0 | 16.1 | 0.00 | 0.00 | 0.00 | 64 | 1002.9 |
| 20260508223245 | 18 | 209 | 8.0 | 16.1 | 0.00 | 0.00 | 0.00 | 63 | 1002.9 |
| 20260508223005 | 18 | 257 | 8.0 | 16.1 | 0.00 | 0.00 | 0.00 | 63 | 1002.9 |
| 20260508222233 | 18 | 244 | 6.4 | 12.9 | 0.00 | 0.00 | 0.00 | 62 | 1002.9 |
| 20260508221729 | 18 | 221 | 8.0 | 20.9 | 0.00 | 0.00 | 0.00 | 61 | 1003.0 |
| 20260508221225 | 18 | 209 | 8.0 | 20.9 | 0.00 | 0.00 | 0.00 | 61 | 1003.0 |
| 20260508220725 | 18 | 234 | 8.0 | 16.1 | 0.00 | 0.00 | 0.00 | 61 | 1003.0 |
| 20260508220223 | 18 | 252 | 8.0 | 16.1 | 0.00 | 0.00 | 0.00 | 60 | 1002.9 |
| 20260508215723 | 18 | 231 | 6.4 | 16.1 | 0.00 | 0.00 | 0.00 | 61 | 1002.9 |
| 20260508215222 | 18 | 232 | 8.0 | 14.5 | 0.00 | 0.00 | 0.00 | 60 | 1002.9 |
| 20260508214940 | 18 | 173 | 8.0 | 14.5 | 0.00 | 0.00 | 0.00 | 60 | 1003.0 |
| 20260508214225 | 18 | 245 | 8.0 | 14.5 | 0.00 | 0.00 | 0.00 | 61 | 1003.0 |
| 20260508213720 | 18 | 164 | 8.0 | 19.3 | 0.00 | 0.00 | 0.00 | 61 | 1003.0 |
| 20260508213218 | 18 | 226 | 6.4 | 19.3 | 0.00 | 0.00 | 0.00 | 60 | 1003.2 |
| 20260508212719 | 18 | 261 | 6.4 | 14.5 | 0.00 | 0.00 | 0.00 | 61 | 1003.2 |
| 20260508212219 | 18 | 197 | 8.0 | 17.7 | 0.00 | 0.00 | 0.00 | 59 | 1003.2 |
| 20260508211936 | 18 | 238 | 6.4 | 17.7 | 0.00 | 0.00 | 0.00 | 58 | 1003.3 |
| 20260508211215 | 18 | 240 | 6.4 | 12.9 | 0.00 | 0.00 | 0.00 | 61 | 1003.3 |
| 20260508210714 | 18 | 258 | 6.4 | 12.9 | 0.00 | 0.00 | 0.00 | 59 | 1003.3 |
| 20260508210215 | 18 | 200 | 6.4 | 14.5 | 0.00 | 0.00 | 0.00 | 58 | 1003.4 |
| 20260508205715 | 18 | 229 | 4.8 | 16.1 | 0.00 | 0.00 | 0.00 | 59 | 1003.4 |
| 20260508205214 | 18 | 271 | 4.8 | 16.1 | 0.00 | 0.00 | 0.00 | 61 | 1003.4 |
| 20260508205159 | 18 | 186 | 6.4 | 11.3 | 0.00 | 0.00 | 0.00 | 61 | 1003.4 |
| 20260508204213 | 18 | 190 | 4.8 | 11.3 | 0.00 | 0.00 | 0.00 | 62 | 1003.4 |
| 20260508203700 | 18 | 196 | 3.2 | 8.0 | 0.00 | 0.00 | 0.00 | 63 | 1003.4 |
| 20260508203158 | 18 | 162 | 3.2 | 9.7 | 0.00 | 0.00 | 0.00 | 62 | 1003.8 |
| 20260508202659 | 17 | 149 | 4.8 | 14.5 | 0.00 | 0.00 | 0.00 | 63 | 1003.8 |
| 20260508202424 | 17 | 232 | 4.8 | 14.5 | 0.00 | 0.00 | 0.00 | 63 | 1003.8 |
| 20260508201658 | 18 | 223 | 4.8 | 14.5 | 0.00 | 0.00 | 0.00 | 62 | 1003.9 |
| 20260508201202 | 18 | 219 | 4.8 | 14.5 | 0.00 | 0.00 | 0.00 | 62 | 1003.9 |
| 20260508201141 | 18 | 192 | 4.8 | 11.3 | 0.00 | 0.00 | 0.00 | 63 | 1003.9 |
| 20260508200158 | 18 | 170 | 4.8 | 14.5 | 0.00 | 0.00 | 0.00 | 61 | 1004.2 |
| 20260508195700 | 18 | 223 | 3.2 | 12.9 | 0.00 | 0.00 | 0.00 | 60 | 1004.2 |
| 20260508195155 | 18 | 199 | 3.2 | 9.7 | 0.00 | 0.00 | 0.00 | 61 | 1004.2 |
| 20260508194646 | 18 | 150 | 4.8 | 12.9 | 0.00 | 0.00 | 0.00 | 59 | 1004.4 |
| 20260508194411 | 18 | 225 | 4.8 | 12.9 | 0.00 | 0.00 | 0.00 | 60 | 1004.4 |
| 20260508193637 | 18 | 253 | 3.2 | 11.3 | 0.00 | 0.00 | 0.00 | 61 | 1004.4 |
| 20260508193130 | 18 | 122 | 3.2 | 8.0 | 0.00 | 0.00 | 0.00 | 62 | 1004.4 |
| 20260508192627 | 18 | 272 | 3.2 | 8.0 | 0.00 | 0.00 | 0.00 | 59 | 1004.4 |
| 20260508192120 | 18 | 194 | 4.8 | 8.0 | 0.00 | 0.00 | 0.00 | 61 | 1004.4 |
| 20260508191613 | 18 | 184 | 4.8 | 9.7 | 0.00 | 0.00 | 0.00 | 62 | 1004.5 |
| 20260508191103 | 18 | 135 | 4.8 | 9.7 | 0.00 | 0.00 | 0.00 | 63 | 1004.5 |
| 20260508190826 | 18 | 233 | 3.2 | 8.0 | 0.00 | 0.00 | 0.00 | 64 | 1004.5 |
| 20260508190320 | 17 | 146 | 4.8 | 9.7 | 0.00 | 0.00 | 0.00 | 63 | 1004.7 |
| 20260508185814 | 17 | 107 | 4.8 | 11.3 | 0.00 | 0.00 | 0.00 | 63 | 1004.7 |
| 20260508185044 | 17 | 200 | 6.4 | 11.3 | 0.00 | 0.00 | 0.00 | 64 | 1004.7 |
| 20260508184533 | 18 | 257 | 4.8 | 12.9 | 0.00 | 0.00 | 0.00 | 61 | 1005.0 |
| 20260508184030 | 18 | 167 | 4.8 | 12.9 | 0.00 | 0.00 | 0.00 | 61 | 1005.0 |
| 20260508183524 | 18 | 96 | 4.8 | 8.0 | 0.00 | 0.00 | 0.00 | 61 | 1005.0 |
| 20260508183018 | 17 | 194 | 4.8 | 14.5 | 0.00 | 0.00 | 0.00 | 62 | 1005.0 |
| 20260508182737 | 17 | 161 | 4.8 | 14.5 | 0.00 | 0.00 | 0.00 | 62 | 1005.0 |
| 20260508182001 | 17 | 198 | 4.8 | 11.3 | 0.00 | 0.00 | 0.00 | 61 | 1005.0 |
| 20260508181500 | 17 | 117 | 3.2 | 6.4 | 0.00 | 0.00 | 0.00 | 61 | 1005.2 |
| 20260508180955 | 17 | 117 | 3.2 | 9.7 | 0.00 | 0.00 | 0.00 | 63 | 1005.2 |
| 20260508180444 | 17 | 152 | 6.4 | 9.7 | 0.00 | 0.00 | 0.00 | 60 | 1005.4 |
| 20260508175943 | 17 | 203 | 4.8 | 9.7 | 0.00 | 0.00 | 0.00 | 61 | 1005.4 |
| 20260508175659 | 17 | 227 | 3.2 | 8.0 | 0.00 | 0.00 | 0.00 | 62 | 1005.4 |
| 20260508174931 | 17 | 249 | 3.2 | 9.7 | 0.00 | 0.00 | 0.00 | 62 | 1005.5 |
| 20260508174420 | 17 | 150 | 4.8 | 9.7 | 0.00 | 0.00 | 0.00 | 60 | 1005.5 |
| 20260508173919 | 17 | 69 | 4.8 | 9.7 | 0.00 | 0.00 | 0.00 | 59 | 1005.5 |
| 20260508173413 | 17 | 130 | 4.8 | 12.9 | 0.00 | 0.00 | 0.00 | 62 | 1005.9 |
| 20260508173127 | 17 | 164 | 3.2 | 12.9 | 0.00 | 0.00 | 0.00 | 63 | 1005.9 |
| 20260508172400 | 17 | 121 | 3.2 | 6.4 | 0.00 | 0.00 | 0.00 | 63 | 1005.9 |
| 20260508171849 | 17 | 223 | 3.2 | 9.7 | 0.00 | 0.00 | 0.00 | 65 | 1006.1 |
| 20260508171347 | 17 | 250 | 3.2 | 9.7 | 0.00 | 0.00 | 0.00 | 64 | 1006.1 |
| 20260508170843 | 17 | 217 | 3.2 | 9.7 | 0.00 | 0.00 | 0.00 | 66 | 1006.1 |
| 20260508170336 | 16 | 189 | 4.8 | 9.7 | 0.00 | 0.00 | 0.00 | 66 | 1006.5 |
| 20260508170053 | 16 | 138 | 4.8 | 9.7 | 0.00 | 0.00 | 0.00 | 68 | 1006.5 |
| 20260508165324 | 16 | 109 | 4.8 | 9.7 | 0.00 | 0.00 | 0.00 | 69 | 1006.5 |
| 20260508165040 | 16 | 238 | 3.2 | 9.7 | 0.00 | 0.00 | 0.00 | 68 | 1006.6 |
| 20260508164313 | 16 | 170 | 3.2 | 9.7 | 0.00 | 0.00 | 0.00 | 70 | 1006.6 |
| 20260508163802 | 15 | 207 | 4.8 | 11.3 | 0.00 | 0.00 | 0.00 | 70 | 1006.6 |
| 20260508163513 | 15 | 217 | 4.8 | 11.3 | 0.00 | 0.00 | 0.00 | 70 | 1006.9 |
| 20260508162737 | 15 | 202 | 3.2 | 9.7 | 0.00 | 0.00 | 0.00 | 71 | 1006.9 |
| 20260508162232 | 15 | 206 | 3.2 | 9.7 | 0.00 | 0.00 | 0.00 | 70 | 1006.9 |
| 20260508161731 | 15 | 171 | 3.2 | 8.0 | 0.00 | 0.00 | 0.00 | 71 | 1007.0 |
| 20260508161232 | 15 | 138 | 3.2 | 8.0 | 0.00 | 0.00 | 0.00 | 71 | 1007.0 |
| 20260508160735 | 15 | 201 | 3.2 | 8.0 | 0.00 | 0.00 | 0.00 | 71 | 1007.0 |
| 20260508160234 | 15 | 157 | 3.2 | 8.0 | 0.00 | 0.00 | 0.00 | 70 | 1007.0 |
| 20260508155731 | 15 | 207 | 3.2 | 6.4 | 0.00 | 0.00 | 0.00 | 72 | 1007.0 |
| 20260508155457 | 15 | 139 | 3.2 | 8.0 | 0.00 | 0.00 | 0.00 | 72 | 1007.0 |
| 20260508154731 | 15 | 221 | 3.2 | 11.3 | 0.00 | 0.00 | 0.00 | 71 | 1007.1 |
| 20260508154230 | 15 | 178 | 3.2 | 11.3 | 0.00 | 0.00 | 0.00 | 71 | 1007.1 |
| 20260508153728 | 15 | 231 | 3.2 | 9.7 | 0.00 | 0.00 | 0.00 | 70 | 1007.1 |
| 20260508153224 | 15 | 209 | 3.2 | 6.4 | 0.00 | 0.00 | 0.00 | 72 | 1007.2 |
| 20260508152717 | 15 | 209 | 3.2 | 11.3 | 0.00 | 0.00 | 0.00 | 73 | 1007.2 |
| 20260508152211 | 15 | 190 | 3.2 | 11.3 | 0.00 | 0.00 | 0.00 | 72 | 1007.2 |
| 20260508151659 | 15 | 140 | 3.2 | 9.7 | 0.00 | 0.00 | 0.00 | 72 | 1007.2 |
| 20260508151159 | 15 | 211 | 4.8 | 11.3 | 0.00 | 0.00 | 0.00 | 72 | 1007.2 |
| 20260508150647 | 14 | 202 | 4.8 | 12.9 | 0.00 | 0.00 | 0.00 | 73 | 1007.2 |
| 20260508150147 | 15 | 238 | 4.8 | 12.9 | 0.00 | 0.00 | 0.00 | 71 | 1007.4 |
| 20260508145640 | 15 | 230 | 4.8 | 12.9 | 0.00 | 0.00 | 0.00 | 73 | 1007.4 |
| 20260508145133 | 14 | 190 | 4.8 | 12.9 | 0.00 | 0.00 | 0.00 | 73 | 1007.4 |
| 20260508144629 | 14 | 217 | 4.8 | 11.3 | 0.00 | 0.00 | 0.00 | 73 | 1007.3 |
| 20260508144117 | 14 | 222 | 3.2 | 11.3 | 0.00 | 0.00 | 0.00 | 75 | 1007.3 |
| 20260508143615 | 13 | 155 | 3.2 | 8.0 | 0.00 | 0.00 | 0.00 | 76 | 1007.3 |
| 20260508143111 | 13 | 223 | 4.8 | 8.0 | 0.00 | 0.00 | 0.00 | 77 | 1007.4 |
| 20260508142827 | 13 | 244 | 3.2 | 8.0 | 0.00 | 0.00 | 0.00 | 78 | 1007.4 |
| 20260508142319 | 13 | 198 | 3.2 | 9.7 | 0.00 | 0.00 | 0.00 | 79 | 1007.4 |
| 20260508141547 | 13 | 196 | 3.2 | 9.7 | 0.00 | 0.00 | 0.00 | 80 | 1007.6 |
| 20260508141312 | 12 | 144 | 4.8 | 11.3 | 0.00 | 0.00 | 0.00 | 82 | 1007.6 |
| 20260508140805 | 12 | 206 | 4.8 | 11.3 | 0.00 | 0.00 | 0.00 | 81 | 1007.6 |
| 20260508140033 | 12 | 232 | 3.2 | 8.0 | 0.00 | 0.00 | 0.00 | 83 | 1007.6 |
| 20260508135527 | 12 | 167 | 3.2 | 11.3 | 0.00 | 0.00 | 0.00 | 84 | 1007.6 |
| 20260508135022 | 12 | 226 | 3.2 | 11.3 | 0.00 | 0.00 | 0.00 | 85 | 1007.6 |
| 20260508134516 | 11 | 225 | 4.8 | 11.3 | 0.00 | 0.00 | 0.00 | 85 | 1007.6 |
| 20260508134006 | 11 | 188 | 4.8 | 12.9 | 0.00 | 0.00 | 0.00 | 85 | 1007.6 |
| 20260508133504 | 11 | 200 | 4.8 | 12.9 | 0.00 | 0.00 | 0.00 | 85 | 1007.6 |
| 20260508132958 | 11 | 232 | 3.2 | 8.0 | 0.00 | 0.00 | 0.00 | 85 | 1007.5 |
| 20260508132450 | 11 | 227 | 3.2 | 8.0 | 0.00 | 0.00 | 0.00 | 86 | 1007.5 |
| 20260508131945 | 11 | 148 | 3.2 | 4.8 | 0.00 | 0.00 | 0.00 | 86 | 1007.6 |
| 20260508131435 | 11 | 123 | 3.2 | 6.4 | 0.00 | 0.00 | 0.00 | 87 | 1007.6 |
| 20260508130934 | 10 | 130 | 3.2 | 6.4 | 0.00 | 0.00 | 0.00 | 87 | 1007.6 |
| 20260508130656 | 10 | 162 | 1.6 | 6.4 | 0.00 | 0.00 | 0.00 | 87 | 1007.6 |
| 20260508125933 | 10 | 162 | 1.6 | 6.4 | 0.00 | 0.00 | 0.00 | 88 | 1007.6 |
| 20260508125432 | 10 | 107 | 1.6 | 4.8 | 0.00 | 0.00 | 0.00 | 88 | 1007.6 |
| 20260508124931 | 10 | 154 | 1.6 | 4.8 | 0.00 | 0.00 | 0.00 | 87 | 1007.6 |
| 20260508124429 | 10 | 128 | 1.6 | 4.8 | 0.00 | 0.00 | 0.00 | 87 | 1007.6 |
| 20260508123929 | 9 | 120 | 1.6 | 4.8 | 0.00 | 0.00 | 0.00 | 88 | 1007.6 |
| 20260508123429 | 9 | 173 | 0.0 | 4.8 | 0.00 | 0.00 | 0.00 | 88 | 1007.5 |
| 20260508122929 | 9 | 157 | 1.6 | 6.4 | 0.00 | 0.00 | 0.00 | 87 | 1007.5 |
| 20260508122430 | 9 | 149 | 3.2 | 6.4 | 0.00 | 0.00 | 0.00 | 87 | 1007.5 |
| 20260508121926 | 9 | 145 | 1.6 | 6.4 | 0.00 | 0.00 | 0.00 | 87 | 1007.6 |
| 20260508121427 | 9 | 147 | 1.6 | 9.7 | 0.00 | 0.00 | 0.00 | 87 | 1007.6 |
| 20260508120927 | 9 | 182 | 3.2 | 11.3 | 0.00 | 0.00 | 0.00 | 87 | 1007.6 |
| 20260508120424 | 9 | 214 | 3.2 | 11.3 | 0.00 | 0.00 | 0.00 | 87 | 1007.4 |
| 20260508115928 | 8 | 200 | 3.2 | 9.7 | 0.00 | 0.00 | 0.00 | 87 | 1007.4 |
| 20260508115648 | 8 | 216 | 3.2 | 8.0 | 0.00 | 0.00 | 0.00 | 87 | 1007.4 |
| 20260508114922 | 8 | 174 | 3.2 | 8.0 | 0.00 | 0.00 | 0.00 | 87 | 1007.5 |
| 20260508114409 | 8 | 200 | 1.6 | 6.4 | 0.00 | 0.00 | 0.00 | 87 | 1007.5 |
| 20260508113857 | 8 | 204 | 0.0 | 4.8 | 0.00 | 0.00 | 0.00 | 87 | 1007.5 |
| 20260508113345 | 8 | 173 | 1.6 | 4.8 | 0.00 | 0.00 | 0.00 | 86 | 1007.2 |
| 20260508112835 | 8 | 173 | 1.6 | 4.8 | 0.00 | 0.00 | 0.00 | 87 | 1007.2 |
| 20260508112321 | 8 | 173 | 1.6 | 4.8 | 0.00 | 0.00 | 0.00 | 86 | 1007.2 |
| 20260508111809 | 8 | 185 | 1.6 | 4.8 | 0.00 | 0.00 | 0.00 | 86 | 1007.1 |
| 20260508111258 | 8 | 204 | 0.0 | 3.2 | 0.00 | 0.00 | 0.00 | 86 | 1007.1 |
| 20260508110745 | 8 | 204 | 0.0 | 3.2 | 0.00 | 0.00 | 0.00 | 85 | 1007.1 |
| 20260508110511 | 8 | 204 | 0.0 | 0.0 | 0.00 | 0.00 | 0.00 | 85 | 1007.2 |
| 20260508105738 | 8 | 204 | 0.0 | 3.2 | 0.00 | 0.00 | 0.00 | 85 | 1007.2 |
| 20260508105231 | 8 | 204 | 1.6 | 3.2 | 0.00 | 0.00 | 0.00 | 85 | 1007.2 |
| 20260508104726 | 8 | 204 | 1.6 | 4.8 | 0.00 | 0.00 | 0.00 | 85 | 1007.2 |
| 20260508104212 | 8 | 245 | 1.6 | 4.8 | 0.00 | 0.00 | 0.00 | 85 | 1007.2 |
| 20260508103713 | 8 | 245 | 0.0 | 3.2 | 0.00 | 0.00 | 0.00 | 85 | 1007.2 |
| 20260508103208 | 8 | 245 | 0.0 | 1.6 | 0.00 | 0.00 | 0.00 | 85 | 1007.3 |
| 20260508102701 | 8 | 245 | 0.0 | 1.6 | 0.00 | 0.00 | 0.00 | 84 | 1007.3 |
| 20260508102157 | 8 | 245 | 0.0 | 0.0 | 0.00 | 0.00 | 0.00 | 84 | 1007.3 |
| 20260508101642 | 8 | 245 | 0.0 | 0.0 | 0.00 | 0.00 | 0.00 | 84 | 1007.5 |
| 20260508101413 | 8 | 245 | 0.0 | 0.0 | 0.00 | 0.00 | 0.00 | 84 | 1007.5 |
| 20260508101118 | 8 | 245 | 0.0 | 0.0 | 0.00 | 0.00 | 0.00 | 83 | 1007.5 |
| 20260508100131 | 8 | 245 | 0.0 | 0.0 | 0.00 | 0.00 | 0.00 | 83 | 1007.2 |
| 20260508095626 | 8 | 245 | 0.0 | 1.6 | 0.00 | 0.00 | 0.00 | 83 | 1007.2 |
| 20260508095116 | 8 | 245 | 0.0 | 1.6 | 0.00 | 0.00 | 0.00 | 83 | 1007.2 |
| 20260508094614 | 8 | 245 | 0.0 | 1.6 | 0.00 | 0.00 | 0.00 | 83 | 1007.6 |
| 20260508094101 | 8 | 245 | 1.6 | 3.2 | 0.00 | 0.00 | 0.00 | 83 | 1007.6 |
| 20260508093600 | 8 | 245 | 1.6 | 3.2 | 0.00 | 0.00 | 0.00 | 83 | 1007.6 |
| 20260508093057 | 8 | 223 | 1.6 | 3.2 | 0.00 | 0.00 | 0.00 | 83 | 1007.5 |
| 20260508092545 | 8 | 223 | 0.0 | 3.2 | 0.00 | 0.00 | 0.00 | 83 | 1007.5 |
| 20260508092044 | 8 | 223 | 1.6 | 4.8 | 0.00 | 0.00 | 0.00 | 83 | 1007.5 |
| 20260508091534 | 8 | 223 | 3.2 | 4.8 | 0.00 | 0.00 | 0.00 | 83 | 1007.5 |
| 20260508091031 | 8 | 223 | 3.2 | 4.8 | 0.00 | 0.00 | 0.00 | 83 | 1007.5 |
| 20260508090525 | 8 | 223 | 1.6 | 3.2 | 0.00 | 0.00 | 0.00 | 83 | 1007.5 |
| 20260508090019 | 8 | 223 | 0.0 | 3.2 | 0.00 | 0.00 | 0.00 | 83 | 1007.6 |
| 20260508085734 | 8 | 223 | 1.6 | 3.2 | 0.00 | 0.00 | 0.00 | 83 | 1007.6 |
| 20260508084959 | 8 | 223 | 1.6 | 3.2 | 0.00 | 0.00 | 0.00 | 82 | 1007.6 |
| 20260508084502 | 8 | 223 | 1.6 | 4.8 | 0.00 | 0.00 | 0.00 | 82 | 1007.6 |
| 20260508083956 | 8 | 223 | 1.6 | 6.4 | 0.00 | 0.00 | 0.00 | 82 | 1007.6 |
| 20260508083445 | 8 | 226 | 3.2 | 8.0 | 0.00 | 0.00 | 0.00 | 81 | 1007.6 |
| 20260508082944 | 9 | 225 | 4.8 | 8.0 | 0.00 | 0.00 | 0.00 | 81 | 1007.6 |
| 20260508082437 | 9 | 204 | 4.8 | 9.7 | 0.00 | 0.00 | 0.00 | 81 | 1007.6 |
| 20260508081931 | 9 | 236 | 6.4 | 9.7 | 0.00 | 0.00 | 0.00 | 80 | 1007.6 |
| 20260508081418 | 9 | 229 | 4.8 | 9.7 | 0.00 | 0.00 | 0.00 | 80 | 1007.6 |
| 20260508080915 | 9 | 229 | 4.8 | 9.7 | 0.00 | 0.00 | 0.00 | 80 | 1007.6 |
| 20260508080413 | 10 | 215 | 4.8 | 9.7 | 0.00 | 0.00 | 0.00 | 80 | 1007.7 |
| 20260508075912 | 10 | 250 | 4.8 | 9.7 | 0.00 | 0.00 | 0.00 | 80 | 1007.7 |
| 20260508075634 | 9 | 228 | 4.8 | 12.9 | 0.00 | 0.00 | 0.00 | 81 | 1007.7 |
| 20260508074911 | 9 | 240 | 4.8 | 12.9 | 0.00 | 0.00 | 0.00 | 81 | 1007.8 |
| 20260508074412 | 9 | 234 | 4.8 | 8.0 | 0.00 | 0.00 | 0.00 | 82 | 1007.8 |
| 20260508073912 | 8 | 207 | 4.8 | 8.0 | 0.00 | 0.00 | 0.00 | 82 | 1007.8 |
| 20260508073412 | 8 | 233 | 4.8 | 9.7 | 0.00 | 0.00 | 0.00 | 82 | 1008.0 |